Regional Weather Roundup
Issued by NWS Charleston, SC

Current Version | Previous Version | Text Only | Print | Product List | Glossary Off
Versions: 1 2 3 4 5 6 7 8 9 10 11 12 13 14 15 16 17 18 19 20 21 22 23 24 25 26 27 28 29 30 31 32 33 34 35 36 37 38 39 40 41 42 43 44 45 46 47 48 49 50
000 ASUS42 KCHS 210227 RWRCHS Regional Weather Roundup National Weather Service Charleston SC 900 PM EST SAT JAN 20 2018 NOTE: "fair" indicates few or no clouds below 12,000 feet with no significant weather and/or obstructions to visibility. Not all stations are quality controlled. Use data with caution, especially dewpoint observations. SCZ027-030-031-034>040-042>050-210300- ...Southeast South Carolina... CITY SKY/WX TMP DP RH WIND PRES REMARKS N Charleston MOCLDY 48 28 46 SW8 30.26R Waterfront Prk NOT AVBL Mount Pleasant FAIR 48 30 49 SW6 30.27R Johns Island FAIR 52 32 46 SW9 30.27S Pinopolis N/A 50 32 50 VRB2 30.16R Moncks Corner FAIR 45 28 53 CALM 30.25S Summerville FAIR 46 30 53 CALM 30.26S Beaufort MCAS FAIR 49 34 56 S3 30.26F Beaufort Arpt FAIR 45 34 65 S6 30.27R Hilton Head Is FAIR 50 32 50 S8 30.28S Walterboro FAIR 45 32 61 CALM 30.26S Allendale FAIR 45 39 81 CALM 30.23F ...Southern Midlands and Pee Dee... CITY SKY/WX TMP DP RH WIND PRES REMARKS Georgetown FAIR 41 30 65 SW5 30.27R Kingstree FAIR 37 32 81 CALM 30.25R Orangeburg FAIR 41 35 79 CALM 30.24R Barnwell N/A 43 39 87 CALM 30.25R Aiken FAIR 41 34 75 CALM 30.27R Manning FAIR 41 34 75 MISG 30.25R Columbia FAIR 42 34 73 W5 30.23R Sumter FAIR 41 29 62 CALM 30.21R Florence FAIR 42 32 67 W3 30.22F Myrtle Beach FAIR 46 31 55 SW5 30.24F N Myrtle Beach FAIR 39 33 79 CALM 30.22F $$ GAZ063-065-086>088-099>101-113>116-118-119-134>141-150-210300- ...Southeast Georgia... CITY SKY/WX TMP DP RH WIND PRES REMARKS Savannah Arpt FAIR 48 32 53 S6 30.27S Hunter AAF FAIR 47 33 59 S3 30.25R Fort Stewart FAIR 46 34 62 CALM 30.25R Statesboro FAIR 45 36 72 CALM 30.26R Sylvania FAIR 47 42 82 CALM 30.26S Claxton FAIR 45 38 77 CALM 30.27R ...CSRA, Central and far Southeast Georgia... CITY SKY/WX TMP DP RH WIND PRES REMARKS Thomson FAIR 42 37 81 CALM 30.28S Augusta-Bush FAIR 41 36 82 CALM 30.23R Augusta-Daniel FAIR 54 37 52 CALM 30.24R Swainsboro FOG 45 41 87 CALM 30.26R VSB 1 Vidalia FAIR 48 39 71 SW5 30.27R Eastman FAIR 48 35 60 CALM 30.29R Hazlehurst FAIR 53 24 32 S3 30.26R Alma FAIR 46 32 58 CALM 30.28R Waycross FAIR 49 27 42 CALM 30.28S Jesup FAIR 48 28 46 SW3 30.28S Baxley FAIR 45 30 57 CALM 30.28R Brunswick FAIR 43 34 70 CALM 30.30S Saint Simons FAIR 50 32 50 CALM 30.30R $$ SCZ027-028-034-036>038-045-046-048>050-GAZ119-141-210300- ...Lake and Supplemental Coastal Observations... STATION/POSITION TIME TEMP WIND PRES WAVE SWELL AIR SEA DIR/SP/G HT/PER HT/PER/DIR (UTC) (F) (DEG/KT/KT) (MB) (FT/S) (FT/S/D) Winyah Bay 0130 49 250/ 4 1024.0S Lake Murray 0220 45 CALM 1023.0 ACE Basin NERRS 0145 45 CALM 1025.0R Fort Pulaski 0200 47 45 210/ 3/ 5 1025.3 Sapelo Island 0200 47 170/ 6 1025.0 $$ ANZ835-935-AMZ111-154-330-350-352-354-370-450-454-472-210300- ...C-MAN and Buoy Observations... STATION/POSITION TIME TEMP WIND PRES WAVE SWELL AIR SEA DIR/SP/G HT/PER HT/PER/DIR (UTC) (F) (DEG/KT/KT) (MB) (FT/S) (FT/S/D) Buoy 41004 0210 61 69 240/ 14/ 19 1024.7 Buoy 41008 0150 53 51 180/ 8/ 8 1025.4R 1/10 2/ 60/10 Folly Beach CMAN 0200 50 240/ 6/ 8 1025.2R Capers Nearshore 0208 47 49 240/ 8/ 10 1024.4R Fripp Nearshore 0208 46 46 220/ 8/ 12 1023.7F STATION/POSITION TIME TEMP WIND PRES WAVE SWELL AIR SEA DIR/SP/G HT/PER HT/PER/DIR (UTC) (F) (DEG/KT/KT) (MB) (FT/S) (FT/S/D) 5E St. Marys GA 0200 49 N/A 1/10 Frying Pan Buoy 0210 58 57 260/ 12/ 14 1023.2 Buoy 41025 0210 62 69 250/ 21/ 25 1021.8 Cape Lookout NC 0200 240/ 13/ 16 1022.8R Buoy 41002 0150 67 70 230/ 12/ 16 1024.8S 4/11 2/ 60/11 Buoy 41010 NOT AVBL St Augustine FL 0200 54 51 200/ 3/ 3 1025.6F $$

USA.gov is the U.S. government's official web portal to all federal, state and local government web resources and services.